2018 FE4
ephemeris date magn radius delta ra dec elong phase
Today4 Sep 202627.00.997 AU1.940 AU11h45m+02°51'14.6°14.8°
2018 FE4 - 2026-09-04
astro.vanbuitenen.nl


 
-1 year
-1 month
-1 day
Now
+1 day
+1 month
+1 year

The interactive orbit chart above shows the body's path through the solar system and its position at the given date. Green and blue lines are shown perpendicular to the ecliptic plane: Green if the path is above the ecliptic plane, blue if it is below. (Left-click and drag to rotate the view; Right-click and drag to move the view; Use scroll wheel to zoom in our out.)

The orbital elements of 2018 FE4 are:

            e (Eccentricity)                : 0.6037020
            a (Semimajor axis)              : 1.6430913
            i (Inclination)                 : 19.25299
            Ω (Longitude of ascending node) : 183.49670
            ω (Argument of perihelion)      : 92.73430
            M (Mean anomaly)                : 296.19626
            Epoch                           : 2026 Jun 09

            L (Longitude of perihelion)     : 96.39272
            B (Latitude of perihelion)      : 19.23021
            P (Orbital period in years)     : 2.11            
        

The light curve chart below shows the estimated development of the minor planet's magnitude.


The all-sky chart below shows the path of the minor planet over the same period as the light curve. The current position is marked yellow.





The following chart shows the path of the minor planet in the next few days. The field of view is optimized for (~10x50) binoculars and finderscopes.




Ephemerides:
Date       Time       RA (2000)    DEC (2000)    delta   radius  elong  phase   PA    magn
2026-09-04 00:00 UT   11 45 58.9   +02 51 22     1.940    0.997   14.6   14.8   109   27.0 
2026-09-04 22:48 UT   11 49 20.8   +02 39 48     1.930    0.987   14.5   14.8   108   26.9 
2026-09-05 00:00 UT   11 49 31.4   +02 39 11     1.930    0.986   14.5   14.8   108   26.9 
2026-09-06 00:00 UT   11 53 06.1   +02 26 50     1.920    0.976   14.5   14.9   107   26.9 
2026-09-07 00:00 UT   11 56 43.0   +02 14 19     1.909    0.966   14.4   15.1   107   26.9 
2026-09-08 00:00 UT   12 00 22.1   +02 01 38     1.899    0.956   14.4   15.2   106   26.8 
2026-09-09 00:00 UT   12 04 03.5   +01 48 47     1.888    0.946   14.4   15.3   105   26.8 
2026-09-10 00:00 UT   12 07 47.2   +01 35 46     1.878    0.936   14.4   15.5   105   26.8 
2026-09-11 00:00 UT   12 11 33.3   +01 22 35     1.867    0.926   14.4   15.7   104   26.7 
2026-09-12 00:00 UT   12 15 21.9   +01 09 14     1.857    0.916   14.4   15.9   103   26.7 


    Terminology:
            
    delta:  distance between minor planet and earth in AU
    radius: distance between minor planet and sun in AU
    magn:   magnitude (brightness) estimate    
    ra:     right ascension in hours (24h = 360deg)
    dec:    declination in degrees
    elong:  elongation in degrees (angle sun-earth-minor planet)    
    phase:  phase angle in degrees (angle sun-minor planet-earth)        
    AU:     Astronomical Unit (mean distance between earth and sun: 149597870.7 km
    

Orbital elements provided by the MPC (Minor Planet Center).
Calculations by a modified version of AAPlus, a C# implementation of the AA+ project by PJ Naughter from the algorithms presented in the book "Astronomical Algorithms" by Jean Meeus.
NGC2000 dso catalog and star labels from VizieR as provided by the Strasbourg astronomical Data Center.
Tycho2 catalog from the ESO archive.